Nautica Digitale Olympic - Sochi 2014
  Sponsor: CARBOTRASPORTI 

OBSERVATIONS
LATEST DOWNLOAD: 2014/04/21 17:16:05

STATION EHRD/063440
Monday, 21 April 2014, 14:55 UTC

pressure 1003 hPa
temperature 14 °C
dewpoint 11 °C
humidity 82.1%
wind ENE-7 knots
visibility Good
sky -
weather -

MAIN LOCATIONS

HOURLY DATA

HOTEL RESERVATION

WEATHER REPORT WEATHER REPORT

METEOMAR METEOMAR

WEATHER CHARTS WEATHER CHARTS

WEBCAM WEBCAM



 ROTTERDAM
COUNTRY
NETHERLANDS
     LAT
51.95 N
    LON
4.45 E
    ELEV
4 m
     REGION
-
     PROVINCE
-
     ZONE
-

LATEST 24 HOURS ( 49 OBSERVATIONS )
Observation time
UTC
temperature
C
humidity
%
pressure
hPa
  wind
knots
2014/04/21 14:5514 821003ENE-7
2014/04/21 14:2514 821003NNE-6
2014/04/21 13:5514 761004NNE-6
2014/04/21 13:2514 761004NNE-7
2014/04/21 12:5515 721004ENE-7
2014/04/21 12:2515 771004ENE-8
2014/04/21 11:5515 721004ENE-9
2014/04/21 11:2515 721004NE-11
2014/04/21 10:5515 721005NE-11
2014/04/21 10:2516 671004NE-10
2014/04/21 09:5516 671005NE-9
2014/04/21 09:2516 671005NE-9
2014/04/21 08:5516 671005NE-6
2014/04/21 08:2515 671005NE-5
2014/04/21 07:5515 671005ENE-6
2014/04/21 07:2514 711005ENE-6
2014/04/21 06:5513 761006ENE-6
2014/04/21 06:2511 871006NE-4
2014/04/21 05:5510 871006ENE-4
2014/04/21 05:259 871005NE-3
2014/04/21 04:558 871005NE-3
2014/04/21 04:259 871005NNE-4
2014/04/21 03:559 871005NE-4
2014/04/21 03:2510 811005NNE-3
2014/04/21 02:559 871005ENE-6
2014/04/21 02:2510 811006E-6
2014/04/21 01:5512 761006E-7
2014/04/21 01:2513 711006E-7
2014/04/21 00:5513 711006E-8
2014/04/21 00:2513 711006E-8
2014/04/20 23:5514 671006E-8
2014/04/20 23:2514 621006E-10
2014/04/20 22:5514 621006E-7
2014/04/20 22:2514 621006E-7
2014/04/20 21:5515 621006E-7
2014/04/20 21:2516 591006E-8
2014/04/20 20:5516 591006E-10
2014/04/20 20:2516 591006E-9
2014/04/20 19:5516 591005E-9
2014/04/20 19:2517 551005E-10
2014/04/20 18:5517 591005E-11
2014/04/20 18:2518 551004E-11
2014/04/20 17:5518 591004E-10
2014/04/20 17:2519 551004E-12
2014/04/20 16:5519 551004E-12
2014/04/20 16:2519 551004E-13
2014/04/20 15:5519 551004E-14
2014/04/20 15:2520 491004E-15
2014/04/20 14:5520 491004E-17
( Previous data )

ARCHIVE   LOCAL FORECASTS   CLIMATE AVERAGES